RS-44 & BREEZE-KM R/B (44909 NORAD) Tracking and Keplerian Element Data

This shows tracking and keplerian element data for the satellite.

Feedback or suggestion? Click here.




ElementValue
Catalog44909
NameRS-44 & BREEZE-KM R/B
Epoch Orbit18905
Epoch Day13.06244164
Epoch Year2024
RAAN208.4875
Inclination82.5198
Eccentricity0.0218241
Argument of Perigee56.4123
Mean Anonmoly305.7603
Mean Motion12.79725811
Decay Rate4.3E-07
L11 44909U 19096E 24013.06244164 .00000043 00000+0 12219-3 0 9992
L22 44909 82.5198 208.4875 0218241 56.4123 305.7603 12.79725811189054



Live tracking and technical data element details for RS-44 & BREEZE-KM R/B (NORAD 44909). RS-44 & BREEZE-KM R/B can be tracked NOW for your location showing map with azimuth and elevation plus other details from your city location.







IsCatalogInMostPopularTable: catalog: 44909, numindb: 2726
Update: records affected: 1



GetName: 44909 RS-44 & BREEZE-KM R/B

Hit Count: updated at: Fri, 19 Apr 2024 12:50:11 GMT